DateTimeUTC,F1_A11,F1_S11,BsB_S11,BsG_S11,BsR_S11,BbsB_S11,BbsG_S11,BbsR_S11,BaB_A11,BaG_A11,BaR_A11,Tu_S11,T_S11,Uu_S11,U_S11,P_S11,T1_A11
2021-10-13T02:00:00Z,00000200,21000000,,,,,,,0000.24,0000.27,0000.08,16.8,24.1,,00.0,0670.2,30.9
2021-10-13T02:01:00Z,00000200,21000000,,,,,,,-000.03,0000.06,-000.07,16.8,24.1,,00.0,0670.2,30.9
2021-10-13T02:02:00Z,00000200,21000000,,,,,,,-000.20,-000.27,-000.04,16.8,24.2,,00.0,0670.2,31.0
2021-10-13T02:03:00Z,00000200,61000000,,,,,,,0000.26,0000.09,0000.41,16.9,24.2,,00.0,0670.2,31.0
2021-10-13T02:04:00Z,00000200,41000000,0003.24,0001.62,0000.83,-000.20,0000.55,0000.01,0000.64,0000.88,-000.00,17.3,24.1,,00.0,0671.2,31.0
2021-10-13T02:05:00Z,00000200,01000000,0003.47,0001.40,0000.74,0001.04,0000.39,0000.16,0000.11,-000.28,-000.04,17.4,24.1,,00.0,0671.3,31.0
2021-10-13T02:06:00Z,00000200,01000000,0004.31,0002.13,0001.52,0000.88,0000.27,0000.22,0000.32,0000.42,-000.06,17.4,24.1,,00.0,0671.3,31.0
2021-10-13T02:07:00Z,00000200,01000000,0003.30,0001.95,0001.03,0000.33,0000.30,0000.28,0000.31,0000.18,0000.16,17.4,24.1,,00.0,0671.2,30.9
2021-10-13T02:08:00Z,00000200,01000000,0002.49,0001.32,0000.78,0000.17,0000.26,0000.10,0000.22,-000.03,0000.54,17.3,24.0,,00.0,0671.2,30.9
2021-10-13T02:09:00Z,00000200,01000000,0003.16,0001.26,0000.68,0000.31,0000.08,0000.26,0000.31,0000.34,-000.34,17.3,24.0,,00.0,0671.2,30.9
2021-10-13T02:10:00Z,00000200,01000000,0002.72,0001.91,0000.71,0000.28,0000.18,0000.39,0000.12,0000.03,0000.15,17.2,24.0,,00.0,0671.2,30.9
2021-10-13T02:11:00Z,00000200,01000000,0004.11,0001.91,0001.05,0000.52,0000.10,-000.11,0000.38,0000.15,0000.42,17.1,23.9,,00.0,0671.2,30.9
2021-10-13T02:12:00Z,00000200,01000000,0002.93,0001.79,0000.39,0000.54,0000.41,0000.08,0000.45,0000.47,0000.35,17.1,23.9,,00.0,0671.1,30.9
2021-10-13T02:13:00Z,00000200,01000000,0003.33,0001.86,0000.88,0000.83,0000.18,0000.30,0000.71,0000.90,0000.41,17.1,23.9,,00.0,0671.2,30.9
2021-10-13T02:14:00Z,00000200,01000000,0003.02,0001.45,0000.79,0000.12,-000.00,0000.03,0000.30,0000.53,0000.01,17.1,23.9,,00.0,0671.2,30.9
2021-10-13T02:15:00Z,00000200,01000000,0003.19,0001.76,0000.84,0000.81,0000.33,0000.20,0000.45,0000.06,0000.44,17.2,23.9,,00.0,0671.2,31.0
2021-10-13T02:16:00Z,00000200,01000000,0003.01,0001.22,0000.74,0000.75,0000.32,0000.21,0000.17,0000.27,0000.28,17.2,23.9,,00.0,0671.2,31.0
2021-10-13T02:17:00Z,00000200,01000000,0002.38,0001.41,0000.67,0000.66,0000.24,0000.13,0000.70,0000.27,0000.18,17.3,24.0,,00.0,0671.2,31.0
2021-10-13T02:18:00Z,00000200,01000000,0002.29,0001.22,0000.62,0001.25,0000.41,0000.18,0000.26,0000.99,0000.48,17.3,24.0,,00.0,0671.2,31.0
2021-10-13T02:19:00Z,00000200,01000000,0002.84,0001.43,0000.98,0000.62,0000.20,-000.10,0000.41,0000.22,-000.05,17.4,24.0,,00.0,0671.3,31.0
2021-10-13T02:20:00Z,00000200,01000000,0002.77,0001.34,0000.69,0000.43,-000.11,0000.27,0000.36,0000.23,0000.43,17.5,24.0,,00.0,0671.3,31.0
2021-10-13T02:21:00Z,00000200,01000000,0003.01,0001.47,0000.68,0000.50,0000.21,0000.37,0000.30,-000.11,-000.24,17.5,24.1,,00.0,0671.3,31.0
2021-10-13T02:22:00Z,00000200,01000000,0003.49,0001.68,0000.65,-000.13,0000.21,-000.24,0000.14,0000.18,0000.25,17.5,24.1,,00.0,0671.3,31.0
2021-10-13T02:23:00Z,00000200,01000000,0003.24,0001.95,0001.28,0000.86,0000.33,0000.35,0000.45,0000.39,-000.06,17.4,24.1,,00.0,0671.3,31.0
2021-10-13T02:24:00Z,00000200,01000000,0003.18,0001.97,0001.11,0000.31,0000.49,0000.46,0000.29,-000.09,0000.31,17.4,24.0,,00.0,0671.3,30.9
2021-10-13T02:25:00Z,00000200,01000000,0003.82,0002.10,0000.89,0000.68,0000.31,0000.06,0000.30,0000.34,0000.42,17.3,24.0,,00.0,0671.2,30.9
2021-10-13T02:26:00Z,00000200,01000000,0003.89,0002.20,0001.53,0000.30,0000.40,0000.06,0000.74,0000.66,0000.08,17.2,24.0,,00.0,0671.2,30.9
2021-10-13T02:27:00Z,00000200,01000000,0003.05,0002.32,0001.01,0000.32,0000.45,0000.19,0000.38,0000.71,0000.52,17.2,23.9,,00.0,0671.2,30.9
2021-10-13T02:28:00Z,00000200,01000000,0003.27,0001.61,0001.21,0000.52,0000.26,0000.21,0000.59,0000.41,0000.21,17.2,23.9,,00.0,0671.2,30.9
2021-10-13T02:29:00Z,00000200,01000000,0003.62,0002.07,0000.99,0000.51,0000.39,0000.04,0000.51,0000.59,0000.38,17.2,23.9,,00.0,0671.3,30.9
2021-10-13T02:30:00Z,00000200,01000000,0003.68,0002.25,0000.84,0000.73,-000.00,0000.07,0000.42,0000.46,0000.17,17.3,23.9,,00.0,0671.3,31.0
2021-10-13T02:31:00Z,00000200,01000000,0004.05,0002.61,0001.44,0000.35,0000.47,0000.21,0000.91,0000.88,0000.56,17.3,24.0,,00.0,0671.3,31.0
2021-10-13T02:32:00Z,00000200,01000000,0003.37,0002.24,0000.90,0001.01,0000.51,0000.36,0000.47,0000.04,0000.26,17.4,24.0,,00.0,0671.3,31.0
2021-10-13T02:33:00Z,00000200,01000000,0003.46,0002.08,0000.91,0000.88,0000.40,0000.21,0000.44,0000.45,0000.47,17.4,24.0,,00.0,0671.3,31.0
2021-10-13T02:34:00Z,00000200,01000000,0003.67,0002.14,0000.93,0000.81,0000.58,-000.22,0000.16,0000.14,-000.11,17.5,24.1,,00.0,0671.3,31.0
2021-10-13T02:35:00Z,00000200,01000000,0003.16,0001.94,0000.50,0000.85,0000.43,-000.02,0000.42,0000.37,0000.50,17.6,24.1,,00.0,0671.3,31.0
2021-10-13T02:36:00Z,00000200,01000000,0003.85,0002.56,0001.24,0000.62,0000.30,0000.27,0000.34,0000.04,0000.18,17.5,24.1,,00.0,0671.3,31.0
2021-10-13T02:37:00Z,00000200,01000000,0003.34,0002.37,0001.11,0000.75,0000.36,0000.22,0000.36,0000.36,-000.06,17.5,24.1,,00.0,0671.3,31.0
2021-10-13T02:38:00Z,00000200,01000000,0004.01,0002.02,0000.78,0000.46,0000.46,0000.29,0000.33,0000.26,0000.33,17.4,24.1,,00.0,0671.3,31.0
2021-10-13T02:39:00Z,00000200,01000000,0002.48,0002.23,0001.30,0000.78,0000.25,0000.12,0000.47,0000.29,-000.01,17.3,24.0,,00.0,0671.2,30.9
2021-10-13T02:40:00Z,00000200,01000000,0003.62,0002.26,0000.99,-000.11,0000.47,0000.42,0000.30,0000.65,0000.11,17.2,24.0,,00.0,0671.3,30.9
2021-10-13T02:41:00Z,00000200,01000000,0003.34,0002.66,0001.41,0000.67,0000.33,0000.22,0000.34,0000.09,0000.56,17.2,23.9,,00.0,0671.2,30.9
2021-10-13T02:42:00Z,00000200,01000000,0004.51,0002.56,0001.25,0000.37,0000.33,-000.09,0000.86,0000.89,0000.41,17.1,23.9,,00.0,0671.2,30.9
2021-10-13T02:43:00Z,00000200,01000000,0004.85,0002.39,0001.53,0000.60,0000.51,0000.30,0000.60,0000.21,0000.36,17.1,23.9,,00.0,0671.3,30.9
2021-10-13T02:44:00Z,00000200,01000000,0003.95,0002.27,0001.21,0000.51,0000.51,0000.35,0000.70,0000.53,0000.54,17.2,23.9,,00.0,0671.3,31.0
2021-10-13T02:45:00Z,00000200,01000000,0005.07,0002.62,0001.19,0000.88,0000.50,0000.38,0000.76,0001.17,0000.34,17.2,23.9,,00.0,0671.3,30.9
2021-10-13T02:46:00Z,00000200,01000000,0003.52,0002.64,0001.34,0000.60,0000.35,0000.57,0000.66,0000.16,0000.58,17.3,23.9,,00.0,0671.3,30.9
2021-10-13T02:47:00Z,00000200,01000000,0004.28,0002.90,0001.58,0000.36,0000.54,0000.17,0000.19,0000.72,-000.02,17.3,23.9,,00.0,0671.3,30.9
2021-10-13T02:48:00Z,00000200,01000000,0003.75,0002.17,0001.52,0000.40,0000.40,0000.36,0000.95,0000.25,0000.73,17.4,24.0,,00.0,0671.3,30.9
2021-10-13T02:49:00Z,00000200,01000000,0004.95,0002.34,0001.22,0000.13,0000.36,0000.31,0000.54,0000.91,0000.06,17.4,24.0,,00.0,0671.3,31.0
2021-10-13T02:50:00Z,00000200,01000000,0004.07,0002.56,0001.10,0000.56,0000.10,0000.36,0000.20,0000.12,0000.02,17.5,24.0,,00.0,0671.3,31.0
2021-10-13T02:51:00Z,00000200,01000000,0004.59,0002.99,0001.31,0000.74,0000.72,0000.27,0000.63,0000.63,0000.27,17.5,24.1,,00.0,0671.3,31.0
2021-10-13T02:52:00Z,00000200,01000000,0003.60,0003.04,0001.28,0000.60,0000.36,0000.02,0000.26,0000.04,0000.28,17.5,24.1,,00.0,0671.3,31.0
2021-10-13T02:53:00Z,00000200,01000000,0004.55,0002.92,0001.69,0000.91,0000.34,0000.38,0000.58,0000.33,0000.24,17.4,24.1,,00.0,0671.2,31.0
2021-10-13T02:54:00Z,00000200,01000000,0005.02,0002.87,0001.43,0000.93,0000.37,-000.00,0000.66,0000.40,0000.50,17.3,24.0,,00.0,0671.2,30.9
2021-10-13T02:55:00Z,00000200,01000000,0004.91,0002.79,0001.90,0001.30,0000.44,0000.48,0000.60,0001.05,0000.30,17.3,24.0,,00.0,0671.2,30.9
2021-10-13T02:56:00Z,00000200,01000000,0005.43,0003.00,0001.35,0000.91,0000.63,-000.08,0000.35,-000.17,0000.33,17.2,23.9,,00.0,0671.2,30.9
2021-10-13T02:57:00Z,00000200,41000000,,,,,,,0001.02,0000.81,0000.77,17.2,24.0,,00.0,0671.2,30.9
2021-10-13T02:58:00Z,00000200,61000000,,,,,,,-000.40,0000.25,-000.46,16.8,24.1,,00.0,0670.2,30.9
2021-10-13T02:59:00Z,00000200,21000000,,,,,,,0000.02,-000.36,0000.26,16.8,24.2,,00.0,0670.2,30.9
